View from above orbital plane
|
View from above satellite
|
Ground track
|
The orbit data is extracted from the following two-line orbital elements,
1 25732U 99025C 21064.03716459 -.00000044 00000-0 45927-6 0 9994
2 25732 98.9168 100.1901 0037304 186.1287 203.6280 14.17688811128887
Epoch (UTC): | 05 March 2021 00:53:31 |
Eccentricity: | 0.0037304 |
inclination: | 98.9168° |
perigee height: | 806 km |
apogee height: | 860 km |
right ascension of ascending node: | 100.1901° |
argument of perigee: | 186.1287° |
revolutions per day: | 14.17688811 |
mean anomaly at epoch: | 203.6280° |
orbit number at epoch: | 12888 |
The dashed part of the orbit path shows where the satellite is in the earth's shadow,
|
|